TimeCDT,TemperatureF,Dew PointF,Humidity,Sea Level PressureIn,VisibilityMPH,Wind Direction,Wind SpeedMPH,Gust SpeedMPH,PrecipitationIn,Events,Conditions,WindDirDegrees,DateUTC
12:44 AM,48.2,42.8,82,30.13,10.0,Variable,4.6,-,N/A,,Overcast,0,2013-10-13 05:44:00
12:53 AM,48.0,42.1,80,30.15,10.0,Variable,5.8,-,N/A,,Overcast,0,2013-10-13 05:53:00
1:08 AM,48.2,42.8,82,30.13,10.0,Variable,5.8,-,N/A,,Overcast,0,2013-10-13 06:08:00
1:37 AM,48.2,42.8,82,30.14,10.0,Variable,3.5,-,N/A,,Overcast,0,2013-10-13 06:37:00
1:53 AM,46.9,42.1,83,30.17,10.0,Variable,4.6,-,N/A,,Overcast,0,2013-10-13 06:53:00
2:53 AM,46.9,42.1,83,30.21,10.0,Variable,4.6,-,N/A,,Overcast,0,2013-10-13 07:53:00
3:18 AM,44.6,41.0,87,30.19,10.0,Variable,4.6,-,N/A,,Mostly Cloudy,0,2013-10-13 08:18:00
3:53 AM,44.1,39.9,85,30.23,10.0,Calm,Calm,-,N/A,,Partly Cloudy,0,2013-10-13 08:53:00
4:53 AM,43.0,39.0,86,30.26,10.0,Variable,3.5,-,N/A,,Mostly Cloudy,0,2013-10-13 09:53:00
5:53 AM,42.1,37.9,85,30.28,10.0,Calm,Calm,-,N/A,,Partly Cloudy,0,2013-10-13 10:53:00
6:53 AM,37.9,36.0,93,30.32,10.0,Calm,Calm,-,N/A,,Clear,0,2013-10-13 11:53:00
7:53 AM,39.0,37.0,93,30.35,10.0,Calm,Calm,-,N/A,,Clear,0,2013-10-13 12:53:00
8:53 AM,43.0,37.9,82,30.38,10.0,Variable,3.5,-,N/A,,Clear,0,2013-10-13 13:53:00
9:53 AM,46.9,37.9,71,30.40,10.0,Calm,Calm,-,N/A,,Clear,0,2013-10-13 14:53:00
10:53 AM,48.9,37.0,64,30.42,10.0,Variable,3.5,-,N/A,,Clear,0,2013-10-13 15:53:00
11:53 AM,52.0,35.1,53,30.42,10.0,Variable,3.5,-,N/A,,Clear,0,2013-10-13 16:53:00
12:53 PM,54.0,30.9,41,30.41,10.0,West,5.8,-,N/A,,Clear,280,2013-10-13 17:53:00
1:53 PM,55.0,30.0,38,30.39,10.0,Variable,3.5,-,N/A,,Clear,0,2013-10-13 18:53:00
2:53 PM,55.9,30.0,37,30.38,10.0,Variable,5.8,-,N/A,,Clear,0,2013-10-13 19:53:00
3:53 PM,55.9,30.0,37,30.38,10.0,NW,3.5,-,N/A,,Clear,320,2013-10-13 20:53:00
4:53 PM,55.0,28.0,35,30.38,10.0,Calm,Calm,-,N/A,,Clear,0,2013-10-13 21:53:00
5:53 PM,52.0,30.0,43,30.39,10.0,Calm,Calm,-,N/A,,Clear,0,2013-10-13 22:53:00
6:53 PM,42.1,35.1,76,30.41,10.0,Calm,Calm,-,N/A,,Clear,0,2013-10-13 23:53:00
7:53 PM,37.9,33.1,83,30.43,10.0,Calm,Calm,-,N/A,,Clear,0,2013-10-14 00:53:00
8:53 PM,35.1,30.9,85,30.44,10.0,Calm,Calm,-,N/A,,Clear,0,2013-10-14 01:53:00
9:53 PM,33.1,30.0,89,30.44,10.0,Calm,Calm,-,N/A,,Clear,0,2013-10-14 02:53:00
10:53 PM,30.9,28.9,92,30.45,10.0,Calm,Calm,-,N/A,,Clear,0,2013-10-14 03:53:00
11:53 PM,30.9,28.0,89,30.45,10.0,Calm,Calm,-,N/A,,Clear,0,2013-10-14 04:53:00